Regional Weather Roundup
Issued by NWS

Home | Current Version | Previous Version | Graphics & Text | Print | Product List | Glossary On
Versions: 1 2 3 4 5 6 7 8 9 10 11 12 13 14 15 16 17 18 19 20 21 22 23 24 25 26 27
000
ASUS45 KBOI 230410
RWRID

IDAHO REGIONAL WEATHER ROUNDUP
NATIONAL WEATHER SERVICE BOISE ID
1000 PM MDT SUN OCT 22 2017

NOTE: "FAIR" INDICATES FEW OR NO CLOUDS BELOW 12000 FEET
WITH NO SIGNIFICANT WEATHER AND/OR OBSTRUCTIONS TO VISIBILITY

IDZ012-014-230500-
SOUTHWEST IDAHO


CITY           SKY/WX    TMP DP  RH WIND       PRES   REMARKS
BOISE          CLOUDY    53  47  79 W3        30.41R
CALDWELL       MOCLDY    51  48  89 S3        30.42R
MOUNTAIN HOME  CLOUDY    55  46  73 NW12      30.40R
$$

IDZ016-017-230500-
SOUTHCENTRAL IDAHO


CITY           SKY/WX    TMP DP  RH WIND       PRES   REMARKS
BURLEY         CLOUDY    53  41  63 SW9       30.40R
JEROME         CLOUDY    52  45  77 SW7       30.41R
TWIN FALLS     MOCLDY    51  44  77 SW12      30.42R
$$

IDZ019>023-230500-
SOUTHEAST IDAHO


CITY           SKY/WX    TMP DP  RH WIND       PRES   REMARKS
IDAHO FALLS    PTCLDY    50  38  63 S21       30.30R
POCATELLO      CLOUDY    53  39  59 SW22G32   30.36R
REXBURG        CLOUDY    49  37  63 S10       30.29R
$$

IDZ006-010-011-018-031-032-230500-
CENTRAL IDAHO MOUNTAINS


CITY           SKY/WX    TMP DP  RH WIND       PRES   REMARKS
MCCALL         CLOUDY    37  36  96 NW5       30.42R WCI  33
HAILEY         MOCLDY    48  37  66 SW10      30.38R
STANLEY          N/A     40  34  79 N5        30.45R
SALMON         CLOUDY    42  32  67 CALM      30.37R
CHALLIS        MOCLDY    46  27  47 W5        30.36R
$$

IDZ002-004-006-007-026-230500-
NORTHERN IDAHO


CITY           SKY/WX    TMP DP  RH WIND       PRES   REMARKS
LEWISTON       CLOUDY    55  38  52 S7        30.39R
LOWELL           N/A     46  46 100 VRB3      30.43R
COEUR D`ALENE  CLOUDY    46  35  65 SW14      30.32R
MULLAN PASS    CLOUDY    34  26  72 VRB6G18   30.30R WCI  29
$$




USA.gov is the U.S. government's official web portal to all federal, state and local government web resources and services.